Location: Les Jeannots
(43.2262°N, 5.5774°E)
Time: 18:00:07
(UTC+00:00)

Cosmos 1727 Rocket - Pass Details

Date: 05 July 2020
Orbit: 962 x 996 km, 82.9° (Epoch: 12 August)

Event Time Altitude Azimuth Distance (km) Brightness Sun altitude
Rises 23:37:42 0° 352° (N) 3,672 8.4 -24.1°
Reaches altitude 10° 23:40:12 10° 352° (N) 2,725 7.4 -24.1°
Maximum altitude 23:46:28 89° 263° (W) 984 3.9 -24.1°
Enters shadow 23:48:07 53° 174° (S) 1,193 4.0 -24.1°
